STARLINK-38421, 100631

Orbit data source: Space-Track

STARLINK-38421, 100631 is a payload satellite owned by SpaceX/Seattle (US) in LEO that was launched on Sun, 06 Sep 2026 UTC launched from the Air Force Western Test Range (AFWTR). Payload-class satellites include a variety of spacecraft equipped with specific instruments for various scientific and technological missions. These include communications satellites like Starlink; space stations such as the ISS; scientific satellites like the Hubble; Earth observation satellites from companies like Planet Labs, Umbra, and HawkEye 360; GPS; miniature CubeSats for education and research; and military/defense satellites.

Not visible in the next 10 days
Identifier
100631, 2026-204S
Orbit
LEO
Country
Flag of USUS
Related business
Manufacturer
SpaceX/Seattle
Mission
Operational spacecraft
Bus & Motor
STARLINK V2MO, Unknown motor
Mass
575 kg wet, ~530 kg dry
Launch date (UTC)
2026-09-06 (5 days ago)
Launch vehicle
Unknown
Launch site
Air Force Western Test Range (AFWTR)
Object type
Payload
Rocket body
Debris
Shape & HBR
BOX + PAN, 17.7 m
Radar Cross Section
RCS unknown

Expand to show TLE details & history
Last TLE update: 21 hours ago

TLE from 21 hours ago
0 STARLINK-38421
1 A0631U          26253.56802181 -.02158823  13895-2 -41064-2 0  9995
2 A0631  69.9977 266.2497 0002203 279.0099  81.0862 16.00629939   648
Epoch: 2026-09-10T13:37Z
TLE epoch observation values (Epoch: 2026-09-10T13:37:57.084Z)
Latitude
-0.0001°
Longitude
72.15795°
Altitude
274.979 km
Speed
7.743 km/s
True Right ascension
17h 44m 59s
True Declination
0° 00' 00"
Sunlit
Object was in daylight at epoch
Visualization orbit readout
Latitude
Unknown
Longitude
Unknown
Altitude
Unknown
Speed
Unknown
Apparent Right ascension
Unknown
Apparent Declination
Unknown
Sunlit
N/A
Visualization observer readout
Local Sidereal Time
02:30:09
Azimuth
Unknown
Elevation
Unknown
Doppler factor
Unknown
Orbital elements
Apogee altitude
271.994 km
Perigee altitude
269.064 km
Semi-major axis
6,648.666 km
Eccentricity
0.00022
Inclination
69.9977°
RAAN
266.2497°
Arg. of periapsis
279.0099°
True anomaly
81.11114°
Mean anomaly
81.0862°
Eccentric anomaly
81.09867°
Mean motion
4.00351 °/min
Orbital period
89.92 mins
BSTAR
-0.0041064
Loading maneuver chart data...
Computing Atmospheric mass density...
Loading historical data...
Loading historical data...
Loading historical data...
Loading historical data...
Loading historical data...
Loading historical data...
Loading historical data...

Documentation

Showing up to 5 results
|